Flag for France Weather past 2 weeks in Lille, France

Now
54 °F

Overcast.


Feels Like: 49 °F
Forecast: 40 / 50 °F
Wind: 18 mph from Southwest

Location: Lille Airport

Current Time: Dec 23, 2014 at 1:52:21 AM

Latest Report: Dec 23, 2014 at 1:00 AM


Visibility: N/A

Pressure: 30.15 "Hg

Humidity: 77%

Dew point: 46 °F

Location of LilleLocation

Historic Weather in Lille — Graph

°F

Lille temperature yesterday

Maximum temperature yesterday: 54 °F (at 1:00 PM)
Minimum temperature yesterday: 46 °F (at 12:00 AM)
Average temperature yesterday: 51 °F

Past Weeks' High & Low Weather Summary

 TemperatureHumidityPressure
High55 °F (Dec 18, 12:00 PM)100% (Dec 8, 11:00 AM)30.48 "Hg (Dec 8, 11:00 AM)
Low28 °F (Dec 14, 5:00 AM)58% (Dec 10, 2:00 PM)29.42 "Hg (Dec 12, 12:30 PM)
Average44 °F89%30.01 "Hg
* Reported Midnight between Dec 7 and Dec 8 — Dec 23 12:30 AM, Lille, Weather by CustomWeather, © 2014

Note: Actual official high and low records may vary slightly from our data, if they occured in-between our weather recording intervals... More about our weather records

Advertising

Lille weather history for previous 24 hours

 ConditionsComfort  
Time TempWeatherWind HumidityBarometerVisibility
12:30 AM
Dec 23
54 °FOvercast.20 mph82%30.15 "HgN/A
12:00 AM52 °FPartly cloudy.20 mph88%30.15 "HgN/A
11:30 PM
Dec 22
54 °FMostly cloudy.23 mph82%30.15 "HgN/A
11:00 PM54 °FMostly cloudy.23 mph82%30.15 "HgN/A
10:30 PM54 °FPartly cloudy.22 mph77%30.18 "HgN/A
10:00 PM54 °FPartly cloudy.18 mph82%30.15 "HgN/A
9:30 PM54 °FPartly cloudy.20 mph82%30.15 "HgN/A
9:00 PM54 °FPartly cloudy.21 mph82%30.15 "HgN/A
8:30 PM54 °FPartly cloudy.20 mph82%30.15 "HgN/A
8:00 PM54 °FOvercast.18 mph82%30.15 "HgN/A
7:30 PM54 °FOvercast.21 mph88%30.15 "HgN/A
7:00 PM54 °FOvercast.20 mph88%30.15 "HgN/A
6:30 PM54 °FOvercast.20 mph88%30.15 "HgN/A
6:00 PM54 °FOvercast.22 mph88%30.15 "HgN/A
5:30 PM54 °FOvercast.22 mph88%30.15 "HgN/A
5:00 PM54 °FOvercast.23 mph88%30.15 "HgN/A
4:30 PM54 °FOvercast.20 mph88%30.15 "HgN/A
4:00 PM54 °FOvercast.28 mph88%30.15 "HgN/A
3:30 PM54 °FOvercast.25 mph88%30.15 "HgN/A
3:00 PM54 °FOvercast.23 mph88%30.15 "HgN/A
2:30 PM54 °FOvercast.22 mph88%30.15 "HgN/A
2:00 PM54 °FOvercast.20 mph88%30.15 "HgN/A
1:30 PM54 °FOvercast.18 mph88%30.15 "HgN/A
1:00 PM54 °FOvercast.21 mph88%30.15 "HgN/A
12:30 PM52 °FOvercast.20 mph94%30.18 "HgN/A
12:00 PM52 °FOvercast.16 mph88%30.15 "HgN/A
11:30 AM52 °FOvercast.18 mph88%30.18 "HgN/A
11:00 AM50 °FOvercast.18 mph94%30.18 "HgN/A
10:30 AM50 °FOvercast.17 mph94%30.18 "HgN/A
10:00 AM50 °FOvercast.16 mph88%30.18 "HgN/A
9:30 AM50 °FOvercast.16 mph88%30.21 "HgN/A
8:30 AM48 °FOvercast.18 mph94%30.18 "HgN/A
8:00 AM48 °FOvercast.20 mph87%30.18 "HgN/A
7:30 AM48 °FOvercast.18 mph87%30.18 "HgN/A
7:00 AM48 °FOvercast.18 mph87%30.21 "HgN/A
6:30 AM50 °FOvercast.18 mph82%30.21 "HgN/A
6:00 AM48 °FOvercast.18 mph94%30.21 "HgN/A
5:30 AM48 °FOvercast.18 mph87%30.21 "HgN/A
4:30 AM48 °FOvercast.20 mph87%30.21 "HgN/A
4:00 AM48 °FOvercast.20 mph87%30.24 "HgN/A
3:30 AM48 °FOvercast.16 mph87%30.24 "HgN/A
3:00 AM48 °FOvercast.18 mph87%30.24 "HgN/A
2:30 AM48 °FOvercast.15 mph87%30.24 "HgN/A
2:00 AM48 °FOvercast.15 mph87%30.24 "HgN/A
1:30 AM48 °FOvercast.16 mph87%30.27 "HgN/A
1:00 AM48 °FOvercast.16 mph82%30.27 "HgN/A
Weather by CustomWeather, © 2014

See weather overviewHow to use our weather pages